Dayton, OH

4:51 PM EDT on August 18, 2017 (GMT -0400)
Cox-Dayton International

Weather History for KDAY - July, 2013

Change the Weather History Date:

Sunday, July 28, 2013

  Actual Average Record
Temperature  
Mean Temperature 62 °F 74 °F  
Max Temperature 71 °F 83 °F 102 °F (1901)
Min Temperature 53 °F 64 °F 53 °F (2013)
Degree Days  
Heating Degree Days 3 0  
Month to date heating degree days 3 0  
Since 1 June heating degree days 14 22  
Since 1 July heating degree days 3 0  
Cooling Degree Days 0 9  
Month to date cooling degree days 280 252  
Year to date cooling degree days 619 512  
Since 1 June cooling degree days 488 442  
Growing Degree Days 12 (Base 50)    
Moisture  
Dew Point 52 °F    
Average Humidity 72    
Maximum Humidity 93    
Minimum Humidity 51    
Precipitation  
Precipitation 0.00 in 0.12 in 1.66 in (1896)
Month to date precipitation 3.56 3.78  
Year to date precipitation 20.98 24.99  
Snow  
Snow 0.00 in 0.00 in - ()
Month to date snowfall 0.0 0.0  
Since 1 June snowfall 0.0 0.0  
Since 1 July snowfall 0.0 0.0  
Snow Depth 0.00 in    
Sea Level Pressure  
Sea Level Pressure 29.99 in    
Wind  
Wind Speed 10 mph (WSW)    
Max Wind Speed 21 mph    
Max Gust Speed 25 mph    
Visibility 10 miles    
Events      
T = Trace of Precipitation, MM = Missing Value Source: NWS Daily Summary

Daily Weather History Graph

Daily Weather History Graph

Search for Another Location

Airport or City:

Trip Planner

Search our weather history database for the weather conditions in past years. The results will help you decide how hot, cold, wet, or windy it might be!

Date:

Astronomy

Jul. 28, 2013 Rise Set
Actual Time 6:32 AM EDT 8:54 PM EDT
Civil Twilight 6:01 AM EDT 9:24 PM EDT
Nautical Twilight 5:23 AM EDT 10:02 PM EDT
Astronomical Twilight 4:41 AM EDT 10:43 PM EDT
Moon No Moon Rise 1:12 PM EDT (7/28)
Length of Visible Light 15h 23m
Length of Day
14h 22m
Waning Gibbous, 61% of the Moon is Illuminated
Jul 28
Waning Gibbous
Jul 29
Last Quarter
Aug 6
New
Aug 14
First Quarter
Aug 20
Full

Hourly Weather History & Observations

Time (EDT) Temp. Dew Point Humidity Pressure Visibility Wind Dir Wind Speed Gust Speed Precip Events Conditions
12:56 AM 59.0 °F 55.0 °F 87% 29.93 in 10.0 mi NNW 4.6 mph - N/A   Partly Cloudy
1:56 AM 57.9 °F 54.0 °F 87% 29.92 in 10.0 mi NW 4.6 mph - N/A   Partly Cloudy
2:56 AM 57.0 °F 54.0 °F 89% 29.92 in 10.0 mi WNW 5.8 mph - N/A   Clear
3:56 AM 55.0 °F 53.1 °F 93% 29.93 in 10.0 mi Calm Calm - N/A   Clear
4:56 AM 55.0 °F 52.0 °F 89% 29.94 in 10.0 mi West 4.6 mph - N/A   Partly Cloudy
5:56 AM 55.0 °F 53.1 °F 93% 29.94 in 10.0 mi SSW 4.6 mph - N/A   Scattered Clouds
6:50 AM 55.4 °F 53.6 °F 94% 29.98 in 9.0 mi WSW 6.9 mph - N/A   Mostly Cloudy
6:56 AM 55.0 °F 53.1 °F 93% 29.97 in 9.0 mi SW 6.9 mph - N/A   Mostly Cloudy
7:10 AM 53.6 °F 53.6 °F 100% 29.98 in 10.0 mi WSW 4.6 mph - N/A   Mostly Cloudy
7:56 AM 57.0 °F 52.0 °F 83% 29.99 in 10.0 mi West 8.1 mph - N/A   Partly Cloudy
8:56 AM 60.1 °F 51.1 °F 72% 30.00 in 10.0 mi West 6.9 mph - N/A   Partly Cloudy
9:56 AM 63.0 °F 48.0 °F 58% 30.00 in 10.0 mi West 11.5 mph - N/A   Partly Cloudy
10:56 AM 64.9 °F 48.9 °F 56% 30.00 in 10.0 mi WSW 19.6 mph 25.3 mph N/A   Scattered Clouds
11:56 AM 68.0 °F 50.0 °F 52% 30.01 in 10.0 mi WNW 11.5 mph 20.7 mph N/A   Scattered Clouds
12:56 PM 66.9 °F 48.9 °F 52% 30.00 in 10.0 mi West 11.5 mph 21.9 mph N/A   Mostly Cloudy
1:56 PM 69.1 °F 50.0 °F 51% 30.00 in 10.0 mi WSW 11.5 mph - N/A   Mostly Cloudy
2:56 PM 70.0 °F 51.1 °F 51% 29.99 in 10.0 mi SW 15.0 mph 20.7 mph N/A   Mostly Cloudy
3:56 PM 70.0 °F 50.0 °F 49% 30.00 in 10.0 mi WSW 15.0 mph - N/A   Mostly Cloudy
4:56 PM 70.0 °F 52.0 °F 53% 30.00 in 10.0 mi SW 11.5 mph - N/A   Mostly Cloudy
5:56 PM 70.0 °F 50.0 °F 49% 30.00 in 10.0 mi WSW 16.1 mph - N/A   Mostly Cloudy
6:56 PM 69.1 °F 51.1 °F 53% 30.01 in 10.0 mi SW 15.0 mph - N/A   Mostly Cloudy
7:56 PM 68.0 °F 52.0 °F 56% 30.03 in 10.0 mi SW 10.4 mph - N/A   Mostly Cloudy
8:56 PM 66.0 °F 53.1 °F 63% 30.04 in 10.0 mi SW 9.2 mph - N/A   Scattered Clouds
9:56 PM 64.9 °F 53.1 °F 65% 30.05 in 10.0 mi SW 8.1 mph - N/A   Mostly Cloudy
10:56 PM 64.0 °F 53.1 °F 67% 30.05 in 10.0 mi SW 8.1 mph - N/A   Scattered Clouds
11:56 PM 62.1 °F 53.1 °F 72% 30.06 in 10.0 mi SW 6.9 mph - N/A   Partly Cloudy